Waarnemingen

Advertentie
Mijn weer
Startbyn, Zweden (2181): temperatuur & dauwpunt: 01.08.2020 23:00:00 - 07.08.2020 23:00:00 (CEST)Startbyn, Zweden (2181): windsnelheid & windstoten: 01.08.2020 23:00:00 - 07.08.2020 23:00:00 (CEST)Startbyn, Zweden (2181): windrichting: 01.08.2020 23:00:00 - 07.08.2020 23:00:00 (CEST)Startbyn, Zweden (2181): luchtdruk: 01.08.2020 23:00:00 - 07.08.2020 23:00:00 (CEST)Startbyn, Zweden (2181): zicht: 01.08.2020 23:00:00 - 07.08.2020 23:00:00 (CEST)Startbyn, Zweden (2181): neerslag: 01.08.2020 23:00:00 - 07.08.2020 23:00:00 (CEST)
Datum & Tijd tt [°C] td [°C] ff [km/u] ff [kn] fx [km/u] fx [kn] dd ppp [hPa] vv [km] rr [mm]
07.08.2020 23:00:00 - - - - - - - - - -
07.08.2020 22:00:00 16,3 15,0 2 1 8 4 ZO 1021,7 50 0,0
07.08.2020 21:00:00 18,6 15,3 5 3 16 9 Z 1021,6 50 0,0
07.08.2020 20:00:00 20,5 15,9 7 4 14 8 Z 1021,4 50 0,0
07.08.2020 19:00:00 20,9 16,3 6 3 22 12 Z 1021,3 50 0,0
07.08.2020 18:00:00 23,4 15,7 6 4 21 11 Z 1021,4 50 0,0
07.08.2020 17:00:00 23,3 14,8 6 3 15 8 Z 1021,3 50 0,0
07.08.2020 16:00:00 22,5 14,6 4 2 15 8 Z 1021,4 50 0,0
07.08.2020 15:00:00 23,2 13,1 5 3 15 8 ZW 1021,6 50 0,0
07.08.2020 14:00:00 24,0 13,2 8 4 20 11 ZZW 1021,7 50 0,0
07.08.2020 13:00:00 23,4 12,1 8 4 18 10 ZZW 1021,7 49 0,0
07.08.2020 12:00:00 23,1 13,3 3 2 11 6 ZZW 1021,8 50 0,0
07.08.2020 11:00:00 21,2 13,5 6 3 11 6 WZW 1022,2 50 0,0
07.08.2020 10:00:00 20,0 14,6 3 2 10 5 ZZW 1022,1 50 0,0
07.08.2020 09:00:00 18,7 14,4 5 3 9 5 Z 1022,0 50 0,0
07.08.2020 08:00:00 17,5 14,4 4 2 9 5 ZZW 1021,9 50 0,0
07.08.2020 07:00:00 16,1 13,8 3 2 9 5 OZO 1021,7 50 0,0
07.08.2020 06:00:00 14,9 13,3 5 3 10 5 Z 1021,4 50 0,0
07.08.2020 05:00:00 14,2 13,3 5 3 10 6 Z 1021,0 50 0,0
07.08.2020 04:00:00 14,1 13,3 4 2 11 6 Z 1020,9 50 0,0
07.08.2020 03:00:00 14,1 13,5 5 3 10 5 Z 1020,7 50 0,0
07.08.2020 02:00:00 13,9 13,3 4 2 13 7 Z 1020,5 41 0,0
07.08.2020 01:00:00 13,8 13,2 5 3 12 6 Z 1020,2 50 0,0
07.08.2020 00:00:00 13,4 12,6 3 2 13 7 ZZO 1020,2 22 0,0
06.08.2020 23:00:00 14,6 13,7 6 3 15 8 Z 1019,8 50 0,0
06.08.2020 22:00:00 15,0 13,5 5 3 21 11 Z 1019,4 50 0,0
06.08.2020 21:00:00 15,6 13,1 5 3 16 9 Z 1018,9 50 0,0
06.08.2020 20:00:00 17,2 12,5 8 5 21 11 Z 1018,4 50 0,0
06.08.2020 19:00:00 18,4 10,2 12 6 27 14 Z 1018,2 50 0,0
06.08.2020 18:00:00 18,9 10,5 8 4 22 12 Z 1017,8 50 0,0
06.08.2020 17:00:00 21,0 10,9 13 7 25 13 Z 1017,4 50 0,0
06.08.2020 16:00:00 21,2 11,2 12 6 24 13 Z 1016,9 50 0,0
06.08.2020 15:00:00 22,3 9,8 8 4 19 10 ZZO 1016,5 46 0,0
06.08.2020 14:00:00 22,3 11,4 8 5 19 10 Z 1016,1 49 0,0
06.08.2020 13:00:00 21,6 11,6 9 5 19 11 Z 1015,7 48 0,0
06.08.2020 12:00:00 21,4 10,2 6 4 14 8 Z 1015,5 47 0,0
06.08.2020 11:00:00 20,0 12,0 7 4 13 7 Z 1015,0 50 0,0
06.08.2020 10:00:00 19,0 11,8 6 3 14 8 Z 1014,6 49 0,0
06.08.2020 09:00:00 18,5 12,7 5 3 14 8 ZZO 1014,2 50 0,0
06.08.2020 08:00:00 16,2 12,4 6 4 14 7 Z 1013,7 50 0,0
06.08.2020 07:00:00 14,0 12,7 2 1 6 3 Z 1013,2 50 0,0
06.08.2020 06:00:00 11,4 10,9 0 0 2 1 N 1012,6 50 0,0
06.08.2020 05:00:00 8,6 8,2 0 0 3 2 N 1012,4 44 0,0
06.08.2020 04:00:00 8,8 8,2 0 0 4 2 N 1012,0 29 0,0
06.08.2020 03:00:00 9,1 8,5 2 1 5 3 Z 1011,3 50 0,0
06.08.2020 02:00:00 10,3 8,9 3 2 9 5 Z 1011,1 50 0,0
06.08.2020 01:00:00 10,9 9,3 4 2 8 4 Z 1010,7 50 0,0
06.08.2020 00:00:00 12,1 9,8 3 2 11 6 Z 1010,4 50 0,0
05.08.2020 23:00:00 14,5 11,0 5 3 14 8 Z 1009,9 50 0,0
05.08.2020 22:00:00 14,6 12,8 4 2 12 6 Z 1009,3 50 0,0
05.08.2020 21:00:00 16,4 13,1 5 3 13 7 Z 1009,0 50 0,0
05.08.2020 20:00:00 17,4 12,3 6 3 13 7 Z 1008,5 50 0,0
05.08.2020 19:00:00 18,4 9,5 7 4 20 11 Z 1008,1 50 0,0
05.08.2020 18:00:00 20,1 8,4 10 5 22 12 ZZW 1007,5 50 0,0
05.08.2020 17:00:00 20,8 8,7 12 6 24 13 WZW 1007,4 50 0,0
05.08.2020 16:00:00 21,7 8,9 10 6 24 13 ZW 1007,1 50 0,0
05.08.2020 15:00:00 19,7 8,4 10 6 25 13 WZW 1006,9 50 0,0
05.08.2020 14:00:00 21,3 9,5 8 5 21 12 ZZW 1006,5 49 0,0
05.08.2020 13:00:00 20,5 9,1 9 5 20 11 ZZW 1006,3 48 0,0
05.08.2020 12:00:00 18,4 9,5 9 5 20 11 ZW 1006,2 50 0,0
05.08.2020 11:00:00 18,5 10,1 7 4 16 9 ZW 1006,2 50 0,0
05.08.2020 10:00:00 18,4 10,7 8 4 16 9 Z 1006,0 50 0,0
05.08.2020 09:00:00 18,3 12,1 4 2 10 5 Z 1005,9 50 0,0
05.08.2020 08:00:00 16,0 11,6 6 4 11 6 ZW 1005,9 50 0,0
05.08.2020 07:00:00 14,1 12,8 5 3 10 5 ZZW 1005,8 50 0,0
05.08.2020 06:00:00 12,1 11,8 0 0 4 2 N 1005,6 14 0,0
05.08.2020 05:00:00 10,4 10,0 0 0 3 2 N 1005,6 3,2 0,0
05.08.2020 04:00:00 11,7 11,4 0 0 4 2 N 1005,5 4,5 0,0
05.08.2020 03:00:00 12,0 11,7 0 0 4 2 N 1005,2 9 0,0
05.08.2020 02:00:00 11,8 11,5 0 0 6 3 N 1005,1 9 0,0
05.08.2020 01:00:00 11,6 11,3 3 2 6 3 ZW 1004,9 8 0,0
05.08.2020 00:00:00 11,5 11,0 0 0 4 2 N 1004,8 4,8 0,0
04.08.2020 23:00:00 12,7 12,1 2 1 5 3 ZO 1004,5 14 0,0
04.08.2020 22:00:00 12,7 12,1 4 2 10 5 ZW 1004,4 16 0,9
04.08.2020 21:00:00 14,4 12,1 9 5 18 10 Z 1004,2 11 0,2
04.08.2020 20:00:00 16,6 13,5 11 6 22 12 Z 1004,0 50 0,0
04.08.2020 19:00:00 17,0 12,9 4 2 14 8 ZZO 1003,5 50 0,0
04.08.2020 18:00:00 19,0 12,7 6 3 16 9 Z 1003,1 50 0,0
04.08.2020 17:00:00 18,2 13,0 6 4 19 11 Z 1003,1 50 0,0
04.08.2020 16:00:00 19,0 12,3 8 5 18 10 Z 1003,0 28 0,0
04.08.2020 15:00:00 19,1 13,7 6 3 19 11 Z 1003,1 49 0,0
04.08.2020 14:00:00 17,6 13,9 6 3 15 8 ZO 1003,3 49 0,0
04.08.2020 13:00:00 16,8 12,5 4 2 11 6 Z 1003,2 50 0,0
04.08.2020 12:00:00 16,2 12,4 4 2 9 5 Z 1003,0 50 0,0
04.08.2020 11:00:00 15,7 11,8 5 3 9 5 Z 1002,9 25 0,0
04.08.2020 10:00:00 16,6 11,7 3 2 8 4 ZZO 1002,6 50 0,0
04.08.2020 09:00:00 16,5 10,6 2 1 5 3 ZZO 1002,5 50 0,0
04.08.2020 08:00:00 13,3 11,5 0 0 3 2 N 1002,8 37 0,0
04.08.2020 07:00:00 10,9 10,3 0 0 5 3 N 1002,8 25 0,0
04.08.2020 06:00:00 9,9 9,4 0 0 3 1 N 1002,9 18 0,0
04.08.2020 05:00:00 8,6 8,3 0 0 4 2 N 1003,0 13 0,0
04.08.2020 04:00:00 7,5 7,2 0 0 4 2 N 1003,2 10 0,0
04.08.2020 03:00:00 6,1 5,7 0 0 3 2 N 1003,3 9 0,0
04.08.2020 02:00:00 6,8 6,4 0 0 3 2 N 1003,2 8 0,0
04.08.2020 01:00:00 7,5 6,8 0 0 2 1 N 1003,1 11 0,0
04.08.2020 00:00:00 8,7 7,8 0 0 3 1 N 1002,8 20 0,0
03.08.2020 23:00:00 10,7 9,0 0 0 6 3 N 1002,9 50 0,0
03.08.2020 22:00:00 11,8 9,5 2 1 10 5 ZZO 1002,7 50 0,0
03.08.2020 21:00:00 14,9 10,1 4 2 9 5 Z 1002,6 50 0,0
03.08.2020 20:00:00 16,9 10,0 2 1 9 5 ZZO 1002,4 50 0,0
03.08.2020 19:00:00 18,6 8,6 4 2 10 6 Z 1002,4 50 0,0
03.08.2020 18:00:00 20,0 5,6 2 1 13 7 ZW 1002,4 50 0,0
03.08.2020 17:00:00 20,2 7,2 3 2 13 7 ZZO 1002,7 44 0,0
03.08.2020 16:00:00 21,2 7,1 5 3 13 7 ZW 1003,0 50 0,0
03.08.2020 15:00:00 20,6 6,9 7 4 14 8 Z 1003,3 50 0,0
03.08.2020 14:00:00 19,5 6,9 3 2 11 6 Z 1003,7 50 0,0
03.08.2020 13:00:00 19,0 6,5 5 3 15 8 O 1004,1 39 0,0
03.08.2020 12:00:00 19,3 8,0 4 2 13 7 ZO 1004,2 48 0,0
03.08.2020 11:00:00 17,0 9,1 4 2 14 8 NO 1004,7 50 0,0
03.08.2020 10:00:00 16,6 9,0 3 2 11 6 NO 1004,9 49 0,0
03.08.2020 09:00:00 15,2 9,1 4 2 8 4 NW 1005,6 48 0,0
03.08.2020 08:00:00 12,6 10,1 2 1 6 3 NW 1006,1 50 0,0
03.08.2020 07:00:00 10,2 9,4 0 0 5 3 N 1006,5 31 0,0
03.08.2020 06:00:00 8,3 8,0 2 1 5 3 N 1006,7 21 0,0
03.08.2020 05:00:00 7,2 7,0 0 0 4 2 N 1007,0 0,7 0,0
03.08.2020 04:00:00 6,0 5,7 0 0 4 2 N 1007,3 0,5 0,0
03.08.2020 03:00:00 4,8 4,4 0 0 4 2 N 1007,5 3,0 0,0
03.08.2020 02:00:00 7,0 6,7 0 0 5 3 N 1007,9 5 0,0
03.08.2020 01:00:00 7,0 6,6 0 0 3 2 N 1008,1 7 0,0
03.08.2020 00:00:00 7,9 7,3 0 0 3 2 N 1008,2 8 0,0
02.08.2020 23:00:00 8,8 7,7 2 1 4 2 NW 1008,2 18 0,0
02.08.2020 22:00:00 10,1 8,5 0 0 5 3 N 1008,3 48 0,0
02.08.2020 21:00:00 12,7 9,3 0 0 9 5 N 1008,4 50 0,0
02.08.2020 20:00:00 15,5 7,8 4 2 21 11 NO 1008,4 50 0,0
02.08.2020 19:00:00 17,2 8,1 8 4 16 9 NO 1008,5 50 0,0
02.08.2020 18:00:00 16,9 7,5 9 5 20 11 NNO 1008,7 50 0,0
02.08.2020 17:00:00 18,4 9,0 9 5 18 10 NNO 1008,7 28 0,0
02.08.2020 16:00:00 18,8 8,4 6 3 18 10 N 1009,2 15 0,0
02.08.2020 15:00:00 17,4 10,3 8 4 19 10 NNO 1009,8 50 0,0
02.08.2020 14:00:00 17,6 9,5 8 4 17 9 NNO 1009,9 50 0,0
02.08.2020 13:00:00 18,6 9,6 6 4 20 11 NNO 1010,0 37 0,0
02.08.2020 12:00:00 18,1 10,7 10 5 23 12 NO 1010,2 38 0,0
02.08.2020 11:00:00 17,9 10,2 9 5 22 12 ONO 1010,6 39 0,0
02.08.2020 10:00:00 17,7 11,3 4 2 16 8 ONO 1010,8 45 0,0
02.08.2020 09:00:00 15,7 11,3 5 3 14 7 NO 1011,2 47 0,0
02.08.2020 08:00:00 14,5 12,0 5 3 14 7 N 1011,2 45 0,0
02.08.2020 07:00:00 13,7 11,6 3 2 10 5 N 1011,4 50 0,0
02.08.2020 06:00:00 12,3 11,2 4 2 11 6 N 1011,6 39 0,0
02.08.2020 05:00:00 11,1 10,8 3 1 9 5 N 1011,8 8 0,0
02.08.2020 04:00:00 10,2 9,9 2 1 5 3 NNW 1012,1 4,9 0,0
02.08.2020 03:00:00 9,3 9,0 2 1 3 2 W 1012,2 0,6 0,0
02.08.2020 02:00:00 9,5 9,2 0 0 5 3 N 1012,4 0,4 0,0
02.08.2020 01:00:00 10,2 9,9 0 0 4 2 N 1012,7 1,1 0,0
02.08.2020 00:00:00 10,9 10,6 0 0 4 2 N 1012,6 0,5 0,0
01.08.2020 23:00:00 11,8 11,4 0 0 3 2 N 1012,6 0,4 0,0

tt = temperatuur
td = dauwpunt
ff = windsnelheid
fx = windstoten
dd = windrichting
ppp = luchtdruk
vv = zicht
rr = neerslag

Weerstations in de omgeving